sat.trackr.live / text

‹ back to catalog

TJS-23

NORAD 67226 · 2025-306A

PAYLOAD ACTIVE UNKNOWN

§ Identity

Operator
Country
PRC
Launch date
2025-12-20
Launch site
WSC
Launch vehicle
Mass (kg)
RCS (m²)

Purposes: comms

External: N2YO · Heavens-Above · Gunter

§ Orbital elements

Epoch: 2026-05-24T15:59:15.754848Z

Period
1,436.13 min
Inclination
5.6415°
Eccentricity
0.0004741
Mean motion
1.00269665 rev/d
Perigee alt
35,767.2 km
Apogee alt
35,807.2 km
Semi-major
42,165.3 km
B*
0.0000e+0
RAAN
297.6108°
Arg perigee
156.0166°
Mean anomaly
203.9581°
Rev number
165

§ Raw data

TJS-231 67226U 25306A   26144.66615457  .00000005  00000+0  00000+0 0  99992 67226   5.6415 297.6108 0004741 156.0166 203.9581  1.00269665  1655

JSON: /api/v1/satellites/67226 · /tle

For live sub-satellite position, see the globe view (requires WebGL).

§ Visibility from observer

Set your observer location to see the next 7 days of passes ≥ 10°. The values pass through the URL so the page stays shareable.

No JS? Fill the form by hand. The geolocation button needs JavaScript.